Regional Weather Roundup
Issued by NWS Goodland, KS

Home | Current Version | Previous Version | Text Only | Print | Product List | Glossary On
Versions: 1 2 3 4 5 6 7 8 9 10 11 12 13 14 15 16 17 18 19 20 21 22 23 24 25 26 27 28 29 30 31 32 33 34 35 36 37 38 39 40 41 42 43 44 45 46 47 48 49 50
000
ASUS43 KGLD 050008
RWRGLD

GOODLAND FORECAST AREA HOURLY WEATHER ROUNDUP
NATIONAL WEATHER SERVICE GOODLAND KS
600 PM MDT FRI SEP 04 2015

...OFFICIAL OBSERVATIONS...

CITY           SKY/WX    TMP DP  RH WIND       PRES   REMARKS
GOODLAND KS    MOSUNNY   92  52  25 S20       29.87R
HILL CITY KS   FAIR      95  57  27 S12       29.81R
IMPERIAL NEB   PTSUNNY   91  50  24 NE5       29.84F
MCCOOK NEB     SUNNY     95  56  26 SE10      29.80S
AKRON CO       PTSUNNY   87  41  19 SE13      29.91S
BURLINGTON CO  PTSUNNY   89  46  22 S10       29.90F
LIMON CO       MOSUNNY   84  42  22 SW9       29.97S
$$

...UNOFFICIAL OBSERVATIONS...

CITY           SKY/WX    TMP DP  RH WIND       PRES   REMARKS
COLBY KS       SUNNY     93  57  29 SE18      29.87R
GOVE KS          N/A     94  32  11 MISG        N/A
LENORA KS        N/A     94  32  11 MISG        N/A
NORTON KS      SUNNY     93  48  21 S10       29.80
SHARON SPRINGS   N/A     91  54  28 S16G24      N/A
KIT CARSON CO    N/A     89  52  27 MISG        N/A
YUMA CO          N/A     85  51  30 SE6         N/A
$$


USA.gov is the U.S. government's official web portal to all federal, state and local government web resources and services.